Powrót do katalogu

NOAA 16 DEB

AktywnySSO
NORAD 41289·DEBRIS·🇺🇸 United States

Wystrzelony Sep 21, 2000 z Vandenberg Space Force Base

Loading…

Następne Przeloty (najbliższe 24 godziny)

TLE

ŚwieżeSource: Space-Track

Epoka: Sep 14, 2026, 12:01 UTC

1 41289U 00055GR  26257.50072616  .00001847  00000-0  90451-3 0  9995
2 41289  98.6439 273.2102 0032679 355.6188   4.4698 14.18781367551384

Śledź NOAA 16 DEB w czasie rzeczywistym z AllMySat

Download on the App Store